Home > Time Zones > World Clock > Weather > Mali > Bamako > Past weeks

Flag for Mali Weather past 2 weeks in Bamako, Mali

Now
91 °F

Scattered clouds.


Feels Like: 96 °F
Forecast: N/A
Wind: 3 mph from North

Location: Bamako / Senou

Current Time: Jul 31, 2014 at 4:41:43 PM

Latest Report: Jul 31, 2014 at 4:00 PM


Visibility: N/A

Pressure: 29.95 "Hg

Humidity: 46%

Dew point: 68 °F

Location of BamakoLocation

Historic Weather in Bamako — Graph

°F

Bamako temperature yesterday

Maximum temperature yesterday: 90 °F (at 1:00 PM)
Minimum temperature yesterday: 73 °F (at 7:30 PM)
Average temperature yesterday: 79 °F

Past Weeks' High & Low Weather Summary

 TemperatureHumidityPressure
High95 °F (Jul 16, 5:00 PM)100% (Jul 17, 8:30 PM)30.09 "Hg (Jul 17, 8:30 PM)
Low70 °F (Jul 17, 8:30 PM)46% (Jul 21, 3:00 PM)29.74 "Hg (Jul 22, 3:00 PM)
Average81 °F81%29.98 "Hg
* Reported Jul 16 3:00 PM — Jul 31 3:30 PM, Bamako, Weather by CustomWeather, © 2014

Note: Actual official high and low records may vary slightly from our data, if they occured in-between our weather recording intervals... More about our weather records

Advertising

Bamako weather history for previous 24 hours

 ConditionsComfort  
Time TempWeatherWind HumidityBarometerVisibility
3:30 PM
Jul 31
90 °FScattered clouds.3 mph49%29.95 "HgN/A
3:00 PM90 °FScattered clouds.6 mph49%29.98 "HgN/A
2:30 PM90 °FBroken clouds.5 mph52%29.98 "HgN/A
2:00 PM90 °FBroken clouds.3 mph49%30.01 "HgN/A
1:30 PM88 °FBroken clouds.6 mph55%30.01 "HgN/A
1:00 PM88 °FBroken clouds.2 mph55%30.04 "HgN/A
12:30 PM86 °FScattered clouds.3 mph62%30.04 "HgN/A
12:00 PM86 °FScattered clouds.6 mph59%30.04 "HgN/A
11:30 AM84 °FScattered clouds.6 mph66%30.04 "HgN/A
11:00 AM84 °FScattered clouds.8 mph70%30.07 "HgN/A
10:30 AM82 °FScattered clouds.8 mph70%30.07 "HgN/A
10:00 AM81 °FScattered clouds.6 mph79%30.07 "HgN/A
9:30 AM81 °FScattered clouds.6 mph84%30.07 "HgN/A
9:00 AM77 °FScattered clouds.3 mph94%30.04 "HgN/A
8:30 AM77 °FBroken clouds.2 mph94%30.04 "HgN/A
8:00 AM75 °FBroken clouds.5 mph100%30.04 "HgN/A
7:30 AM75 °FBroken clouds.5 mph100%30.04 "HgN/A
7:00 AM73 °FThunderstorms. Broken clouds.No wind100%30.04 "HgN/A
6:30 AM73 °FThunderstorms. Broken clouds.2 mph100%30.01 "HgN/A
6:00 AM73 °FThunderstorms. Partly cloudy.5 mph100%30.01 "HgN/A
5:30 AM73 °FPartly cloudy.5 mph100%30.01 "HgN/A
5:00 AM75 °FPartly cloudy.3 mph100%30.01 "HgN/A
4:30 AM73 °FPartly cloudy.1 mph100%30.01 "HgN/A
4:00 AM73 °FPartly cloudy.2 mph100%29.98 "HgN/A
3:30 AM73 °FPartly cloudy.No wind100%29.98 "HgN/A
3:00 AM73 °FPartly cloudy.No wind100%29.98 "HgN/A
2:30 AM73 °FPartly cloudy.1 mph100%29.98 "HgN/A
2:00 AM73 °FPartly cloudy.2 mph100%29.98 "HgN/A
1:30 AM73 °FPartly cloudy.1 mph100%29.98 "HgN/A
1:00 AM73 °FPartly cloudy.No wind100%29.98 "HgN/A
12:30 AM73 °FPartly cloudy.No wind100%30.01 "HgN/A
12:00 AM75 °FPartly cloudy.2 mph100%30.01 "HgN/A
11:30 PM
Jul 30
75 °FPartly cloudy.1 mph100%30.01 "HgN/A
11:00 PM75 °FPartly cloudy.1 mph100%30.01 "HgN/A
10:30 PM75 °FPartly cloudy.2 mph100%30.01 "HgN/A
10:00 PM75 °FPartly cloudy.1 mph100%29.98 "HgN/A
9:30 PM75 °FThunderstorms. Partly cloudy.1 mph100%29.98 "HgN/A
9:00 PM75 °FThunderstorms. Partly cloudy.1 mph100%29.98 "HgN/A
8:30 PM73 °FThunderstorms. Partly cloudy.2 mph100%29.95 "HgN/A
8:00 PM73 °FThunderstorms. Partly cloudy.1 mph100%29.95 "HgN/A
7:30 PM73 °FThunderstorms. Partly cloudy.3 mph100%29.95 "HgN/A
7:00 PM75 °FThunderstorms. Partly cloudy.7 mph100%29.95 "Hg5 mi
6:30 PM75 °FThunderstorms. Broken clouds.5 mph100%29.98 "Hg5 mi
5:30 PM75 °FThunderstorms. Broken clouds.7 mph100%29.95 "Hg5 mi
5:00 PM75 °FThunderstorms. Broken clouds.13 mph94%29.95 "HgN/A
4:30 PM75 °FThunderstorms. Broken clouds.13 mph94%29.95 "HgN/A
4:00 PM75 °FThunderstorms. Broken clouds.23 mph94%29.95 "HgN/A
Weather by CustomWeather, © 2014

See weather overviewHow to use our weather pages